Paynesville, MN

8:41 PM CST on February 12, 2016 (GMT -0600)
Paynesville

Weather History for KPEX - November, 2013

Change the Weather History Date:

Thursday, November 7, 2013

  Actual Average (KLJF) Record (KLJF)
Temperature  
Mean Temperature 29 °F -  
Max Temperature 38 °F 44 °F 67 °F (1975)
Min Temperature 20 °F 26 °F -4 °F (1991)
Degree Days  
Heating Degree Days 36    
Moisture  
Dew Point 24 °F    
Average Humidity 85    
Maximum Humidity 97    
Minimum Humidity 53    
Precipitation  
Precipitation 0.00 in - - ()
Sea Level Pressure  
Sea Level Pressure 30.19 in    
Wind  
Wind Speed 5 mph (West)    
Max Wind Speed 15 mph    
Max Gust Speed 18 mph    
Visibility 9 miles    
Events      
Averages and records for this station are not official NWS values.
T = Trace of Precipitation, MM = Missing Value Source: NWS Daily Summary

Daily Weather History Graph

Daily Weather History Graph

Search for Another Location

Airport or City:

Trip Planner

Search our weather history database for the weather conditions in past years. The results will help you decide how hot, cold, wet, or windy it might be!

Date:

Astronomy

Nov. 07, 2013 Rise Set
Actual Time 7:06 AM CST 4:57 PM CST
Civil Twilight 6:35 AM CST 5:29 PM CST
Nautical Twilight 6:00 AM CST 6:04 PM CST
Astronomical Twilight 5:25 AM CST 6:38 PM CST
Moon 11:18 AM CST (11/7) 9:08 PM CST (11/7)
Length of Visible Light 10h 53m
Length of Day
9h 50m
Waxing Crescent, 23% of the Moon is Illuminated
Nov 7
Waxing Crescent
Nov 9
First Quarter
Nov 17
Full
Nov 25
Last Quarter
Dec 2
New

Hourly Weather History & Observations

Time (CST) Temp. Windchill Dew Point Humidity Pressure Visibility Wind Dir Wind Speed Gust Speed Precip Events Conditions
12:13 AM 26.1 °F 18.4 °F 24.6 °F 94% 30.16 in 10.0 mi West 6.9 mph - N/A   Clear
12:32 AM 25.5 °F 17.8 °F 24.1 °F 94% 30.16 in 10.0 mi West 6.9 mph - N/A   Clear
12:53 AM 25.0 °F 19.3 °F 23.7 °F 95% 30.16 in 10.0 mi West 4.6 mph - N/A   Clear
1:13 AM 23.9 °F 18.0 °F 23.0 °F 96% 30.16 in 10.0 mi West 4.6 mph - N/A   Clear
1:32 AM 23.5 °F 17.6 °F 22.5 °F 96% 30.16 in 10.0 mi West 4.6 mph - N/A   Clear
1:53 AM 23.9 °F 18.0 °F 23.0 °F 96% 30.15 in 10.0 mi WSW 4.6 mph - N/A   Clear
2:12 AM 23.9 °F 16.8 °F 22.8 °F 96% 30.15 in 10.0 mi West 5.8 mph - N/A   Clear
2:33 AM 22.6 °F 16.5 °F 21.6 °F 96% 30.16 in 10.0 mi West 4.6 mph - N/A   Clear
2:52 AM 23.9 °F 18.0 °F 23.0 °F 96% 30.16 in 10.0 mi West 4.6 mph - N/A   Clear
3:12 AM 22.3 °F 17.6 °F 21.4 °F 96% 30.16 in 7.0 mi West 3.5 mph - N/A   Clear
3:33 AM 21.4 °F - 20.5 °F 96% 30.15 in 7.0 mi Calm Calm - N/A   Clear
3:53 AM 22.5 °F - 21.6 °F 96% 30.16 in 5.0 mi Calm Calm - N/A   Clear
4:12 AM 20.7 °F - 19.4 °F 95% 30.16 in 5.0 mi Calm Calm - N/A   Clear
4:33 AM 20.1 °F - 19.0 °F 96% 30.17 in 2.0 mi Calm Calm - N/A   Clear
4:53 AM 21.7 °F 13.2 °F 20.8 °F 96% 30.18 in 7.0 mi West 6.9 mph - N/A   Mostly Cloudy
5:13 AM 23.0 °F 15.8 °F 22.1 °F 96% 30.18 in 7.0 mi West 5.8 mph - N/A   Overcast
5:32 AM 23.9 °F 19.5 °F 23.0 °F 96% 30.18 in 7.0 mi West 3.5 mph - N/A   Overcast
5:53 AM 23.2 °F 17.2 °F 22.3 °F 96% 30.18 in 7.0 mi WSW 4.6 mph - N/A   Mostly Cloudy
6:13 AM 23.9 °F - 23.0 °F 96% 30.17 in 7.0 mi Calm Calm - N/A   Overcast
6:32 AM 24.4 °F - 23.7 °F 97% 30.17 in 10.0 mi Calm Calm - N/A   Overcast
6:52 AM 24.4 °F - 23.5 °F 96% 30.17 in 10.0 mi Calm Calm - N/A   Overcast
7:13 AM 23.9 °F - 23.0 °F 96% 30.17 in 7.0 mi Calm Calm - N/A   Overcast
7:33 AM 23.7 °F 17.8 °F 22.8 °F 96% 30.19 in 7.0 mi West 4.6 mph - N/A   Mostly Cloudy
7:52 AM 25.5 °F 18.7 °F 24.8 °F 97% 30.19 in 7.0 mi West 5.8 mph - N/A   Scattered Clouds
8:13 AM 27.1 °F 19.7 °F 26.1 °F 96% 30.20 in 10.0 mi West 6.9 mph - N/A   Clear
8:33 AM 27.5 °F 18.0 °F 25.9 °F 94% 30.20 in 10.0 mi WNW 10.4 mph 16.1 mph N/A   Mostly Cloudy
8:52 AM 27.5 °F 19.3 °F 26.2 °F 95% 30.21 in 10.0 mi WNW 8.1 mph - N/A   Overcast
9:13 AM 27.1 °F 18.9 °F 25.7 °F 94% 30.21 in 10.0 mi WNW 8.1 mph - N/A   Overcast
9:33 AM 27.1 °F 15.4 °F 25.7 °F 94% 30.23 in 7.0 mi West 15.0 mph 18.4 mph N/A   Overcast
9:52 AM 27.7 °F 19.6 °F 26.4 °F 95% 30.23 in 7.0 mi WNW 8.1 mph - N/A   Overcast
10:13 AM 28.9 °F 21.1 °F 27.5 °F 94% 30.22 in 7.0 mi WNW 8.1 mph - N/A   Overcast
10:32 AM 29.3 °F 24.3 °F 27.9 °F 94% 30.23 in 7.0 mi WNW 4.6 mph - N/A   Overcast
10:52 AM 30.0 °F 22.4 °F 28.2 °F 93% 30.24 in 5.0 mi NW 8.1 mph - N/A   Overcast
11:13 AM 30.2 °F 23.4 °F 28.4 °F 93% 30.24 in 5.0 mi WNW 6.9 mph - N/A   Overcast
11:33 AM 31.5 °F 23.5 °F 29.3 °F 92% 30.24 in 5.0 mi West 9.2 mph - N/A   Overcast
11:53 AM 32.7 °F 25.7 °F 29.1 °F 87% 30.23 in 7.0 mi West 8.1 mph - N/A   Mostly Cloudy
12:12 PM 33.4 °F 27.3 °F 28.2 °F 81% 30.22 in 7.0 mi West 6.9 mph - N/A   Mostly Cloudy
12:33 PM 34.9 °F 27.1 °F 28.0 °F 76% 30.21 in 7.0 mi West 10.4 mph - N/A   Mostly Cloudy
12:53 PM 35.6 °F 27.1 °F 27.1 °F 71% 30.21 in 10.0 mi West 12.7 mph 16.1 mph N/A   Overcast
1:12 PM 35.6 °F 27.1 °F 25.5 °F 67% 30.21 in 10.0 mi West 12.7 mph - N/A   Mostly Cloudy
1:33 PM 35.8 °F 28.8 °F 23.2 °F 60% 30.21 in 10.0 mi WNW 9.2 mph - N/A   Overcast
1:52 PM 36.1 °F 29.9 °F 24.8 °F 63% 30.20 in 10.0 mi West 8.1 mph - N/A   Overcast
2:12 PM 37.9 °F 30.0 °F 25.7 °F 61% 30.20 in 10.0 mi West 12.7 mph - N/A   Overcast
2:33 PM 38.3 °F 32.5 °F 25.0 °F 59% 30.20 in 10.0 mi West 8.1 mph - N/A   Overcast
2:52 PM 37.6 °F 31.0 °F 22.5 °F 54% 30.19 in 10.0 mi West 9.2 mph - N/A   Overcast
3:12 PM 38.5 °F 33.4 °F 22.8 °F 53% 30.19 in 10.0 mi West 6.9 mph - N/A   Mostly Cloudy
3:33 PM 37.9 °F 32.1 °F 21.9 °F 53% 30.19 in 10.0 mi West 8.1 mph - N/A   Mostly Cloudy
3:53 PM 38.3 °F 32.5 °F 23.4 °F 55% 30.18 in 10.0 mi West 8.1 mph - N/A   Overcast
4:12 PM 37.4 °F 32.1 °F 22.6 °F 55% 30.18 in 10.0 mi West 6.9 mph - N/A   Overcast
4:32 PM 35.8 °F - 23.9 °F 62% 30.18 in 10.0 mi Calm Calm - N/A   Mostly Cloudy
4:53 PM 32.9 °F - 23.2 °F 67% 30.18 in 10.0 mi Calm Calm - N/A   Scattered Clouds
5:13 PM 32.5 °F - 22.3 °F 66% 30.18 in 10.0 mi Calm Calm - N/A   Clear
5:33 PM 32.5 °F 28.1 °F 22.1 °F 65% 30.18 in 10.0 mi SW 4.6 mph - N/A   Clear
5:53 PM 30.0 °F - 22.6 °F 74% 30.18 in 10.0 mi Calm Calm - N/A   Clear
6:12 PM 30.4 °F - 22.1 °F 71% 30.18 in 10.0 mi Calm Calm - N/A   Clear
6:33 PM 27.5 °F - 23.4 °F 84% 30.18 in 10.0 mi Calm Calm - N/A   Clear
6:52 PM 26.4 °F - 22.5 °F 85% 30.18 in 10.0 mi Calm Calm - N/A   Clear
7:12 PM 26.4 °F - 21.9 °F 83% 30.18 in 10.0 mi Calm Calm - N/A   Clear
7:33 PM 25.3 °F - 22.1 °F 87% 30.18 in 10.0 mi Calm Calm - N/A   Clear
7:52 PM 26.8 °F - 21.4 °F 80% 30.18 in 10.0 mi Calm Calm - N/A   Clear
8:12 PM 27.7 °F - 21.7 °F 78% 30.18 in 10.0 mi Calm Calm - N/A   Clear
8:33 PM 27.3 °F - 21.7 °F 80% 30.18 in 10.0 mi Calm Calm - N/A   Clear
8:53 PM 27.7 °F - 21.6 °F 78% 30.18 in 10.0 mi Calm Calm - N/A   Clear
9:12 PM 24.3 °F - 21.4 °F 89% 30.18 in 10.0 mi Calm Calm - N/A   Clear
9:32 PM 23.4 °F - 20.3 °F 88% 30.18 in 10.0 mi Calm Calm - N/A   Clear
9:52 PM 23.5 °F - 20.8 °F 89% 30.18 in 10.0 mi Calm Calm - N/A   Clear
10:13 PM 25.9 °F - 21.9 °F 85% 30.18 in 10.0 mi Calm Calm - N/A   Clear
10:32 PM 27.7 °F - 23.4 °F 84% 30.18 in 10.0 mi Calm Calm - N/A   Clear
10:53 PM 24.8 °F - 22.1 °F 89% 30.17 in 10.0 mi Calm Calm - N/A   Clear
11:12 PM 23.7 °F - 21.2 °F 90% 30.17 in 10.0 mi Calm Calm - N/A   Clear
11:32 PM 23.2 °F - 21.6 °F 94% 30.16 in 10.0 mi Calm Calm - N/A   Clear
11:53 PM 23.0 °F - 21.2 °F 93% 30.16 in 10.0 mi Calm Calm - N/A   Clear